Terug naar catalogus

STARLINK-6376

ActiefCommunicatieVLEO
NORAD 57349·PAYLOAD·🇺🇸 United States

Gelanceerd Jul 16, 2023 vanaf Cape Canaveral Space Force Station

Loading…

Volgende Passages (komende 24 uur)

TLE

VersSource: CelesTrak SupGP

Epoch: Sep 14, 2026, 22:22 UTC

1 57349C 23099X   26257.93243056  .00027012  00000+0  97861-3 0  2577
2 57349  42.9992 260.1235 0001405 262.3126 329.9704 15.27556803    13

Volg STARLINK-6376 in realtime met AllMySat

Download on the App Store